AUA656 EDDF-LOWW

Flight info

Callsign AUA656
Flight time N/A
Altitude 31000
Route SULUS7S/18 SULUS Z650 VEMUT/N0439F290 DCT BUDEX BUDEX2W
Aircraft A321/M-SDE3FGHIRWY/LB1

Departure

Time N/A
Airport Frankfurt Main Airport (EDDF)

Arrival

Time 2026-05-04 14:37
Airport Vienna International Airport (LOWW)
Time Latitude Longitude Altitude Speed Heading
2026-05-04 13:36 49.76798 9.07532 13113 ft 363 kts 121°
2026-05-04 13:36 49.75835 9.11119 13638 ft 370 kts 108°
2026-05-04 13:37 49.75207 9.14990 14130 ft 373 kts 105°
2026-05-04 13:37 49.74610 9.18910 14595 ft 376 kts 105°
2026-05-04 13:37 49.73994 9.22866 15062 ft 379 kts 106°
2026-05-04 13:37 49.73569 9.25537 15376 ft 381 kts 106°
2026-05-04 13:38 49.72714 9.30837 15961 ft 386 kts 107°
2026-05-04 13:38 49.72059 9.34867 16420 ft 389 kts 107°
2026-05-04 13:38 49.71395 9.38938 16877 ft 392 kts 107°
2026-05-04 13:38 49.70725 9.43034 17324 ft 395 kts 107°
2026-05-04 13:39 49.70048 9.47164 17771 ft 398 kts 107°
2026-05-04 13:39 49.69363 9.51329 18180 ft 401 kts 107°
2026-05-04 13:39 49.68683 9.55456 18530 ft 404 kts 107°
2026-05-04 13:39 49.67987 9.59677 18900 ft 407 kts 107°
2026-05-04 13:40 49.67326 9.63932 19257 ft 411 kts 103°
2026-05-04 13:40 49.67184 9.68368 19593 ft 418 kts 87°
2026-05-04 13:40 49.67781 9.72790 19955 ft 423 kts 77°
2026-05-04 13:40 49.68596 9.77173 20308 ft 426 kts 76°
2026-05-04 13:41 49.69423 9.81580 20662 ft 429 kts 76°
2026-05-04 13:41 49.70229 9.86026 21012 ft 431 kts 77°
2026-05-04 13:41 49.71020 9.90507 21355 ft 433 kts 77°
2026-05-04 13:42 49.73599 9.98889 21977 ft 443 kts 56°
2026-05-04 13:42 49.75413 10.02761 22296 ft 445 kts 54°
2026-05-04 13:42 49.77245 10.06639 22647 ft 447 kts 55°
2026-05-04 13:42 49.79070 10.10541 22981 ft 449 kts 55°
2026-05-04 13:43 49.80898 10.14482 23309 ft 451 kts 55°
2026-05-04 13:43 49.82727 10.18446 23611 ft 454 kts 56°
2026-05-04 13:43 49.84564 10.22441 23875 ft 456 kts 56°
2026-05-04 13:43 49.86402 10.26444 24141 ft 458 kts 56°
2026-05-04 13:44 49.88223 10.30424 24393 ft 460 kts 56°
2026-05-04 13:44 49.90075 10.34473 24658 ft 461 kts 56°
2026-05-04 13:44 49.91936 10.38544 24915 ft 463 kts 56°
2026-05-04 13:44 49.93802 10.42634 25178 ft 465 kts 56°
2026-05-04 13:45 49.95675 10.46745 25439 ft 467 kts 56°
2026-05-04 13:45 49.97550 10.50867 25700 ft 469 kts 56°
2026-05-04 13:45 49.99432 10.55014 25937 ft 470 kts 55°
2026-05-04 13:45 50.01324 10.59180 26177 ft 472 kts 55°
2026-05-04 13:46 50.03211 10.63359 26410 ft 474 kts 56°
2026-05-04 13:46 50.04828 10.67753 26632 ft 475 kts 67°
2026-05-04 13:46 50.05814 10.72639 26835 ft 474 kts 81°
2026-05-04 13:46 50.06043 10.77721 27071 ft 470 kts 96°
2026-05-04 13:47 50.05525 10.82697 27343 ft 464 kts 109°
2026-05-04 13:47 50.04539 10.87455 27659 ft 462 kts 112°
2026-05-04 13:47 50.03492 10.92165 27966 ft 461 kts 112°
2026-05-04 13:47 50.02456 10.96888 28285 ft 461 kts 112°
2026-05-04 13:48 50.01442 11.01619 28598 ft 461 kts 112°
2026-05-04 13:48 50.00435 11.06346 28860 ft 461 kts 112°
2026-05-04 13:48 49.99437 11.11019 29141 ft 462 kts 112°
2026-05-04 13:48 49.98425 11.15746 29432 ft 461 kts 112°
2026-05-04 13:49 49.97416 11.20467 29729 ft 461 kts 112°
2026-05-04 13:49 49.96404 11.25190 30024 ft 460 kts 112°
2026-05-04 13:49 49.95403 11.29909 30264 ft 460 kts 112°
2026-05-04 13:49 49.94401 11.34615 30496 ft 459 kts 112°
2026-05-04 13:50 49.93402 11.39325 30748 ft 459 kts 111°
2026-05-04 13:50 49.92487 11.44076 30951 ft 460 kts 109°
2026-05-04 13:50 49.90759 11.53535 31009 ft 458 kts 109°
2026-05-04 13:51 49.89012 11.63017 30999 ft 458 kts 109°
2026-05-04 13:51 49.87676 11.72688 31002 ft 461 kts 100°
2026-05-04 13:52 49.86400 11.87468 31007 ft 461 kts 100°
2026-05-04 13:53 49.85524 11.97290 31014 ft 460 kts 100°
2026-05-04 13:53 49.84644 12.07038 31011 ft 459 kts 100°
2026-05-04 13:54 49.83311 12.21732 30973 ft 459 kts 100°
2026-05-04 13:55 49.81966 12.36435 30965 ft 462 kts 100°
2026-05-04 13:55 49.80697 12.46089 30965 ft 458 kts 114°
2026-05-04 13:55 49.79252 12.50445 30967 ft 453 kts 126°
2026-05-04 13:56 49.75652 12.58428 30972 ft 452 kts 129°
2026-05-04 13:57 49.70246 12.70381 30959 ft 452 kts 128°
2026-05-04 13:58 49.63047 12.86398 30972 ft 457 kts 128°
2026-05-04 13:58 49.57592 12.98474 30956 ft 457 kts 128°
2026-05-04 13:59 49.53950 13.06501 30969 ft 457 kts 128°
2026-05-04 14:00 49.48500 13.18473 30995 ft 457 kts 128°
2026-05-04 14:00 49.43013 13.30470 30990 ft 457 kts 128°
2026-05-04 14:01 49.39348 13.38457 30980 ft 457 kts 128°
2026-05-04 14:02 49.33869 13.50351 30965 ft 456 kts 128°
2026-05-04 14:02 49.30216 13.58255 30968 ft 453 kts 128°
2026-05-04 14:03 49.26576 13.66101 30963 ft 451 kts 128°
2026-05-04 14:03 49.22942 13.73913 30963 ft 450 kts 128°
2026-05-04 14:04 49.17974 13.84555 30958 ft 448 kts 128°
2026-05-04 14:04 49.14355 13.92282 30963 ft 446 kts 128°
2026-05-04 14:05 49.08851 14.03990 30967 ft 455 kts 128°
2026-05-04 14:05 49.07013 14.07890 30762 ft 451 kts 128°
2026-05-04 14:06 49.05199 14.11735 30484 ft 441 kts 128°
2026-05-04 14:06 49.03414 14.15511 30223 ft 437 kts 128°
2026-05-04 14:06 49.01669 14.19197 29965 ft 434 kts 128°
2026-05-04 14:06 48.99903 14.22921 29672 ft 433 kts 128°
2026-05-04 14:07 48.98143 14.26629 29399 ft 431 kts 128°
2026-05-04 14:07 48.96392 14.30313 29129 ft 428 kts 128°
2026-05-04 14:07 48.94639 14.33964 28843 ft 426 kts 129°
2026-05-04 14:07 48.92850 14.37535 28568 ft 424 kts 129°
2026-05-04 14:08 48.91060 14.41085 28214 ft 421 kts 129°
2026-05-04 14:08 48.89282 14.44606 27718 ft 418 kts 129°
2026-05-04 14:08 48.87513 14.48105 27190 ft 416 kts 129°
2026-05-04 14:08 48.85752 14.51583 26629 ft 416 kts 129°
2026-05-04 14:09 48.82262 14.58472 25566 ft 413 kts 129°
2026-05-04 14:09 48.80511 14.61918 25054 ft 412 kts 129°
2026-05-04 14:10 48.77020 14.68779 23992 ft 410 kts 129°
2026-05-04 14:10 48.75280 14.72193 23447 ft 408 kts 129°
2026-05-04 14:10 48.73552 14.75579 22852 ft 405 kts 129°
2026-05-04 14:10 48.71836 14.78937 22318 ft 400 kts 129°
2026-05-04 14:11 48.70163 14.82209 21803 ft 396 kts 129°
2026-05-04 14:11 48.66835 14.88695 20839 ft 385 kts 130°
2026-05-04 14:11 48.65203 14.91870 20390 ft 379 kts 130°
2026-05-04 14:12 48.63591 14.95001 19931 ft 374 kts 130°
2026-05-04 14:12 48.62001 14.98086 19476 ft 369 kts 130°
2026-05-04 14:12 48.59023 15.04287 18612 ft 364 kts 118°
2026-05-04 14:13 48.58161 15.07872 18191 ft 363 kts 107°
2026-05-04 14:13 48.57548 15.11508 17726 ft 361 kts 105°
2026-05-04 14:13 48.56954 15.15164 17286 ft 358 kts 105°
2026-05-04 14:13 48.56352 15.18792 16858 ft 355 kts 106°
2026-05-04 14:14 48.55742 15.22389 16454 ft 352 kts 106°
2026-05-04 14:14 48.54522 15.29472 15668 ft 346 kts 107°
2026-05-04 14:14 48.53917 15.32965 15294 ft 342 kts 107°
2026-05-04 14:15 48.52716 15.39851 14533 ft 338 kts 107°
2026-05-04 14:15 48.51808 15.46752 13695 ft 339 kts 97°
2026-05-04 14:16 48.51435 15.53817 12836 ft 336 kts 96°
2026-05-04 14:16 48.51250 15.57321 12415 ft 334 kts 97°
2026-05-04 14:17 48.50862 15.64291 11513 ft 333 kts 97°
2026-05-04 14:17 48.50663 15.67760 11071 ft 331 kts 97°
2026-05-04 14:17 48.50268 15.74546 10456 ft 318 kts 97°
2026-05-04 14:18 48.50074 15.77852 10288 ft 307 kts 97°
2026-05-04 14:18 48.49707 15.84117 9519 ft 301 kts 97°
2026-05-04 14:19 48.49333 15.90397 8582 ft 300 kts 97°
2026-05-04 14:19 48.49144 15.93524 8132 ft 299 kts 97°
2026-05-04 14:19 48.48956 15.96626 7723 ft 296 kts 97°
2026-05-04 14:19 48.48772 15.99685 7360 ft 291 kts 97°
2026-05-04 14:20 48.48589 16.02716 6972 ft 289 kts 97°
2026-05-04 14:20 48.48402 16.05723 6579 ft 287 kts 98°
2026-05-04 14:20 48.47927 16.08565 6190 ft 282 kts 118°
2026-05-04 14:21 48.45094 16.12194 5695 ft 271 kts 158°
2026-05-04 14:21 48.43358 16.13267 5575 ft 268 kts 159°
2026-05-04 14:21 48.41633 16.14334 5508 ft 268 kts 158°
2026-05-04 14:21 48.39922 16.15418 5469 ft 267 kts 158°
2026-05-04 14:22 48.38212 16.16519 5429 ft 266 kts 158°
2026-05-04 14:22 48.36539 16.17604 5399 ft 255 kts 158°
2026-05-04 14:22 48.34923 16.18658 5354 ft 257 kts 158°
2026-05-04 14:22 48.33301 16.19721 5336 ft 256 kts 157°
2026-05-04 14:23 48.30661 16.23297 5247 ft 267 kts 118°
2026-05-04 14:23 48.30249 16.26017 5225 ft 271 kts 94°
2026-05-04 14:23 48.30557 16.28817 5196 ft 273 kts 77°
2026-05-04 14:24 48.31223 16.31498 5177 ft 277 kts 64°
2026-05-04 14:24 48.32478 16.33729 5127 ft 285 kts 39°
2026-05-04 14:24 48.34285 16.34949 5093 ft 288 kts 11°
2026-05-04 14:24 48.36279 16.34857 5062 ft 294 kts 346°
2026-05-04 14:25 48.38288 16.33968 5087 ft 303 kts 341°
2026-05-04 14:25 48.42061 16.32189 5156 ft 268 kts 342°
2026-05-04 14:25 48.43793 16.31414 5075 ft 252 kts 342°
2026-05-04 14:26 48.45429 16.30694 5032 ft 237 kts 343°
2026-05-04 14:26 48.47008 16.30019 4969 ft 236 kts 346°
2026-05-04 14:26 48.48648 16.29939 4948 ft 239 kts 16°
2026-05-04 14:26 48.50072 16.31164 4947 ft 238 kts 50°
2026-05-04 14:27 48.50855 16.33297 4964 ft 232 kts 76°
2026-05-04 14:27 48.51232 16.35577 4956 ft 215 kts 80°
2026-05-04 14:27 48.51552 16.37705 4944 ft 210 kts 81°
2026-05-04 14:27 48.51665 16.39858 4940 ft 204 kts 108°
2026-05-04 14:28 48.50934 16.41596 4950 ft 196 kts 149°
2026-05-04 14:28 48.49656 16.42243 5033 ft 198 kts 171°
2026-05-04 14:28 48.48293 16.42628 5021 ft 200 kts 168°
2026-05-04 14:28 48.46942 16.43113 4991 ft 198 kts 166°
2026-05-04 14:29 48.44734 16.43989 4970 ft 199 kts 166°
2026-05-04 14:29 48.41649 16.45271 4963 ft 199 kts 165°
2026-05-04 14:30 48.40320 16.45814 4961 ft 197 kts 166°
2026-05-04 14:30 48.39009 16.46351 4964 ft 194 kts 166°
2026-05-04 14:30 48.36399 16.47428 4969 ft 194 kts 166°
2026-05-04 14:31 48.35536 16.47790 4964 ft 195 kts 166°
2026-05-04 14:31 48.32900 16.48911 4735 ft 196 kts 164°
2026-05-04 14:32 48.30356 16.49998 4292 ft 182 kts 164°
2026-05-04 14:32 48.28748 16.50685 3969 ft 180 kts 163°
2026-05-04 14:32 48.27939 16.51031 3808 ft 176 kts 165°
2026-05-04 14:32 48.26829 16.51504 3587 ft 159 kts 166°
2026-05-04 14:33 48.25823 16.51933 3359 ft 143 kts 166°
2026-05-04 14:33 48.24877 16.52335 3166 ft 141 kts 165°
2026-05-04 14:33 48.23935 16.52737 2988 ft 140 kts 165°
2026-05-04 14:33 48.22996 16.53137 2810 ft 140 kts 165°
2026-05-04 14:34 48.21756 16.53665 2568 ft 140 kts 166°
2026-05-04 14:34 48.20823 16.54061 2389 ft 139 kts 166°
2026-05-04 14:34 48.20193 16.54330 2264 ft 139 kts 166°
2026-05-04 14:34 48.19261 16.54726 2081 ft 139 kts 166°
2026-05-04 14:35 48.18347 16.55114 1892 ft 138 kts 166°
2026-05-04 14:35 48.17423 16.55507 1721 ft 138 kts 166°
2026-05-04 14:35 48.16503 16.55898 1538 ft 137 kts 166°
2026-05-04 14:35 48.15582 16.56289 1360 ft 137 kts 166°
2026-05-04 14:36 48.14662 16.56680 1175 ft 137 kts 164°
2026-05-04 14:36 48.13743 16.57069 994 ft 137 kts 163°
2026-05-04 14:36 48.12822 16.57451 778 ft 137 kts 163°
2026-05-04 14:36 48.11911 16.57842 647 ft 136 kts 163°
2026-05-04 14:37 48.11089 16.58191 621 ft 95 kts 162°
2026-05-04 14:37 48.10755 16.58303 614 ft 26 kts 184°
2026-05-04 14:37 48.10620 16.58249 614 ft 20 kts 194°
2026-05-04 14:37 48.10595 16.58239 614 ft 0 kts 194°
2026-05-04 14:38 48.10577 16.58232 614 ft 8 kts 194°
2026-05-04 14:38 48.10500 16.58193 621 ft 14 kts 219°
2026-05-04 14:38 48.10479 16.58051 619 ft 17 kts 311°
2026-05-04 14:39 48.10597 16.57984 624 ft 20 kts 342°
2026-05-04 14:39 48.10736 16.57924 614 ft 22 kts 343°
2026-05-04 14:39 48.10894 16.57859 620 ft 25 kts 343°
2026-05-04 14:40 48.11206 16.57725 622 ft 21 kts 345°
2026-05-04 14:40 48.11357 16.57661 618 ft 24 kts 346°
2026-05-04 14:40 48.11496 16.57603 621 ft 15 kts 344°
2026-05-04 14:40 48.11559 16.57495 619 ft 10 kts 253°
2026-05-04 14:41 48.11494 16.57467 620 ft 11 kts 207°
2026-05-04 14:41 48.11432 16.57383 617 ft 15 kts 277°
2026-05-04 14:41 48.11535 16.57051 619 ft 20 kts 296°
2026-05-04 14:42 48.11630 16.56774 617 ft 7 kts 328°
2026-05-04 14:42 48.11670 16.56787 620 ft 6 kts 28°
2026-05-04 14:42 48.11702 16.56811 618 ft 2 kts 26°
2026-05-04 14:43 48.11709 16.56816 618 ft 0 kts 26°